Huron, SD

5:36 AM CDT on March 30, 2017 (GMT -0500)
Huron Regional

Weather History for KHON - July, 2013

Change the Weather History Date:

Monday, July 1, 2013

  Actual Average Record
Temperature  
Mean Temperature 69 °F 72 °F  
Max Temperature 85 °F 84 °F 103 °F (2002)
Min Temperature 53 °F 60 °F 42 °F (2016)
Degree Days  
Heating Degree Days 0 0  
Month to date heating degree days 0 0  
Since 1 June heating degree days 66 51  
Since 1 July heating degree days 0 0  
Cooling Degree Days 4 8  
Month to date cooling degree days 4 8  
Year to date cooling degree days 177 174  
Since 1 June cooling degree days 139 141  
Growing Degree Days 18 (Base 50)    
Moisture  
Dew Point 55 °F    
Average Humidity 66    
Maximum Humidity 100    
Minimum Humidity 32    
Precipitation  
Precipitation 0.00 in 0.08 in 1.68 in (1997)
Month to date precipitation 0.00 0.08  
Year to date precipitation 14.05 11.99  
Snow  
Snow 0.00 in 0.00 in 0.00 in ()
Month to date snowfall 0.0 0.0  
Since 1 June snowfall 0.0 0.0  
Since 1 July snowfall 0.0 0.0  
Snow Depth 0.00 in    
Sea Level Pressure  
Sea Level Pressure 30.20 in    
Wind  
Wind Speed 3 mph (NNW)    
Max Wind Speed 9 mph    
Max Gust Speed 14 mph    
Visibility 7 miles    
Events Rain    
T = Trace of Precipitation, MM = Missing Value Source: NWS Daily Summary

Daily Weather History Graph

Daily Weather History Graph

Search for Another Location

Airport or City:

Trip Planner

Search our weather history database for the weather conditions in past years. The results will help you decide how hot, cold, wet, or windy it might be!

Date:

Astronomy

Jul. 01, 2013 Rise Set
Actual Time 5:52 AM CDT 9:20 PM CDT
Civil Twilight 5:16 AM CDT 9:57 PM CDT
Nautical Twilight 4:28 AM CDT 10:45 PM CDT
Astronomical Twilight 3:26 AM CDT 11:46 PM CDT
Moon 1:32 AM CDT (7/1) 3:29 PM CDT (7/1)
Length of Visible Light 16h 41m
Length of Day
15h 28m
Waning Crescent, 35% of the Moon is Illuminated
Jul 1
Waning Crescent
Jul 8
New
Jul 15
First Quarter
Jul 22
Full
Jul 29
Last Quarter

Hourly Weather History & Observations

Time (CDT) Temp. Heat Index Dew Point Humidity Pressure Visibility Wind Dir Wind Speed Gust Speed Precip Events Conditions
12:55 AM 61.0 °F - 54.0 °F 78% 30.18 in 6.0 mi NNE 3.5 mph - N/A   Haze
1:55 AM 59.0 °F - 54.0 °F 83% 30.19 in 6.0 mi Calm Calm - N/A   Haze
2:55 AM 55.9 °F - 53.1 °F 90% 30.19 in 6.0 mi Calm Calm - 0.00 in Rain Light Rain
3:55 AM 55.0 °F - 54.0 °F 96% 30.20 in 5.0 mi WNW 3.5 mph - 0.00 in   Clear
4:55 AM 54.0 °F - 53.1 °F 97% 30.21 in 5.0 mi WNW 3.5 mph - N/A   Clear
5:55 AM 53.1 °F - 52.0 °F 96% 30.23 in 3.0 mi NW 5.8 mph - N/A   Clear
6:34 AM 53.6 °F - 53.6 °F 100% 30.24 in 2.5 mi NW 3.5 mph - N/A   Clear
6:50 AM 55.4 °F - 53.6 °F 94% 30.24 in 3.0 mi Calm Calm - N/A   Clear
6:55 AM 55.9 °F - 54.0 °F 93% 30.23 in 3.0 mi NNW 3.5 mph - N/A   Clear
7:55 AM 61.0 °F - 57.9 °F 90% 30.24 in 3.0 mi NNW 3.5 mph - N/A   Clear
8:55 AM 66.9 °F - 57.0 °F 70% 30.25 in 5.0 mi North 5.8 mph - N/A   Haze
9:55 AM 73.0 °F - 57.0 °F 57% 30.25 in 6.0 mi NNW 6.9 mph - N/A   Haze
10:55 AM 77.0 °F - 55.0 °F 47% 30.24 in 7.0 mi NNE 6.9 mph - N/A   Clear
11:55 AM 80.1 °F 80.1 °F 55.0 °F 42% 30.24 in 9.0 mi North 5.8 mph - N/A   Clear
12:55 PM 81.0 °F 80.7 °F 55.0 °F 41% 30.22 in 10.0 mi Calm Calm - N/A   Partly Cloudy
1:55 PM 82.0 °F - 50.0 °F 33% 30.22 in 10.0 mi Variable 5.8 mph - N/A   Partly Cloudy
2:55 PM 82.9 °F - 50.0 °F 32% 30.20 in 10.0 mi Calm Calm - N/A   Scattered Clouds
3:55 PM 82.9 °F - 51.1 °F 33% 30.19 in 10.0 mi Calm Calm - N/A   Partly Cloudy
4:55 PM 84.0 °F - 52.0 °F 33% 30.18 in 10.0 mi North 4.6 mph - N/A   Clear
5:55 PM 84.0 °F - 51.1 °F 32% 30.18 in 10.0 mi Calm Calm - N/A   Clear
6:55 PM 82.0 °F - 52.0 °F 35% 30.16 in 10.0 mi NW 3.5 mph - N/A   Clear
7:55 PM 80.1 °F 80.6 °F 57.9 °F 47% 30.16 in 10.0 mi NW 3.5 mph - N/A   Clear
8:55 PM 73.0 °F - 61.0 °F 66% 30.16 in 6.0 mi NW 3.5 mph - N/A   Haze
9:55 PM 69.1 °F - 61.0 °F 75% 30.16 in 7.0 mi NW 3.5 mph - N/A   Clear
10:55 PM 66.0 °F - 61.0 °F 84% 30.16 in 6.0 mi NW 3.5 mph - N/A   Haze
11:55 PM 64.0 °F - 60.1 °F 87% 30.16 in 8.0 mi Calm Calm - N/A   Clear